Shannon, Ireland

5:08 PM IST on August 19, 2017 (GMT +0100)
Shannon

Weather History for EINN - November, 2011

Change the Weather History Date:

Tuesday, November 8, 2011

  Actual Average Record
Temperature  
Mean Temperature 49 °F -  
Max Temperature 55 °F 50 °F 60 °F (1998)
Min Temperature 43 °F 39 °F 32 °F (1997)
Degree Days  
Heating Degree Days 16    
Moisture  
Dew Point 48 °F    
Average Humidity 88    
Maximum Humidity 100    
Minimum Humidity 82    
Precipitation  
Precipitation 0.00 in 0.13 in - ()
Sea Level Pressure  
Sea Level Pressure 29.79 in    
Wind  
Wind Speed 9 mph ()    
Max Wind Speed 17 mph    
Max Gust Speed -    
Visibility 6.1 miles    
Events Rain    
Averages and records for this station are not official NWS values.
T = Trace of Precipitation, MM = Missing Value Source: Averaged Metar Reports

Daily Weather History Graph

Daily Weather History Graph

Search for Another Location

Airport or City:

Trip Planner

Search our weather history database for the weather conditions in past years. The results will help you decide how hot, cold, wet, or windy it might be!

Date:

Astronomy

Nov. 08, 2011 Rise Set
Actual Time 7:44 AM GMT 4:53 PM GMT
Civil Twilight 7:07 AM GMT 5:30 PM GMT
Nautical Twilight 6:26 AM GMT 6:11 PM GMT
Astronomical Twilight 5:46 AM GMT 6:51 PM GMT
Moon 3:34 PM GMT (11/8) 5:20 AM GMT (11/8)
Length of Visible Light 10h 22m
Length of Day
9h 08m
Waxing Gibbous, 95% of the Moon is Illuminated
Nov 8
Waxing Gibbous
Nov 10
Full
Nov 18
Last Quarter
Nov 25
New
Dec 2
First Quarter

Hourly Weather History & Observations

Time (GMT) Temp. Windchill Dew Point Humidity Pressure Visibility Wind Dir Wind Speed Gust Speed Precip Events Conditions
12:00 AM 46 °F - 44 °F 89% 29.96 in 7 mi ESE 8.9 mph - -   Mist
12:00 AM 46.4 °F 41.9 °F 44.6 °F 93% 29.95 in 6.2 mi ESE 9.2 mph - N/A   Mostly Cloudy
12:30 AM 46.4 °F 43.5 °F 44.6 °F 93% 29.95 in 6.2 mi ESE 5.8 mph - N/A   Mostly Cloudy
1:00 AM 46.4 °F 43.5 °F 44.6 °F 93% 29.95 in 5.0 mi ESE 5.8 mph - N/A   Mostly Cloudy
1:30 AM 46.4 °F 43.5 °F 44.6 °F 93% 29.92 in 5.0 mi East 5.8 mph - N/A   Mostly Cloudy
2:00 AM 46.4 °F 42.9 °F 44.6 °F 93% 29.92 in 5.0 mi East 6.9 mph - N/A   Mostly Cloudy
2:30 AM 46.4 °F 42.9 °F 46.4 °F 100% 29.92 in 5.0 mi East 6.9 mph - N/A   Mostly Cloudy
3:00 AM 48.2 °F - 46.4 °F 93% 29.89 in 5.0 mi East 8.1 mph - N/A   Mostly Cloudy
3:30 AM 48.2 °F - 46.4 °F 93% 29.89 in 4.3 mi East 8.1 mph - N/A   Mostly Cloudy
4:00 AM 50.0 °F - 48.2 °F 94% 29.86 in 5.0 mi ESE 9.2 mph - N/A   Mostly Cloudy
4:30 AM 50.0 °F - 48.2 °F 94% 29.86 in 6.2 mi SE 9.2 mph - N/A   Mostly Cloudy
5:00 AM 50.0 °F - 48.2 °F 94% 29.86 in 5.6 mi SE 10.4 mph - N/A   Overcast
5:30 AM 50.0 °F - 46.4 °F 87% 29.86 in 5.6 mi SE 9.2 mph - N/A   Overcast
6:00 AM 49 °F - 46 °F 86% 29.86 in 6 mi SE 8.9 mph - -   Mist
6:00 AM 50.0 °F - 46.4 °F 87% 29.86 in 5.6 mi SE 9.2 mph - N/A   Overcast
6:30 AM 50.0 °F - 46.4 °F 87% 29.86 in 6.2 mi ESE 6.9 mph - N/A   Overcast
7:00 AM 50.0 °F - 46.4 °F 87% 29.86 in 6.2 mi SE 9.2 mph - N/A   Mostly Cloudy
7:30 AM 50.0 °F - 46.4 °F 87% 29.83 in 6.2 mi ESE 9.2 mph - N/A   Mostly Cloudy
8:00 AM 50.0 °F - 46.4 °F 87% 29.83 in 6.2 mi ESE 9.2 mph - N/A Rain Light Rain
8:30 AM 50.0 °F - 46.4 °F 87% 29.83 in 3.1 mi SE 6.9 mph - N/A   Light Drizzle
9:00 AM 48.2 °F - 48.2 °F 100% 29.83 in 3.1 mi SE 5.8 mph - N/A   Light Drizzle
9:30 AM 50.0 °F - 48.2 °F 94% 29.83 in 3.7 mi SE 8.1 mph - N/A   Mostly Cloudy
10:00 AM 50.0 °F - 48.2 °F 94% 29.83 in 6.2 mi ESE 9.2 mph - N/A   Mostly Cloudy
10:30 AM 51.8 °F - 48.2 °F 88% 29.83 in 6.2 mi SE 13.8 mph - N/A   Mostly Cloudy
11:00 AM 51.8 °F - 46.4 °F 82% 29.83 in 6.2 mi SE 12.7 mph - N/A   Mostly Cloudy
11:30 AM 51.8 °F - 46.4 °F 82% 29.80 in 6.2 mi SE 12.7 mph - N/A   Mostly Cloudy
12:00 PM 51 °F - 47 °F 83% 29.81 in 12 mi SE 11.2 mph - -   Partly Cloudy
12:00 PM 51.8 °F - 48.2 °F 88% 29.80 in 6.2 mi SE 11.5 mph - N/A   Mostly Cloudy
12:30 PM 51.8 °F - 48.2 °F 88% 29.80 in 6.2 mi SE 8.1 mph - N/A   Mostly Cloudy
1:00 PM 51.8 °F - 48.2 °F 88% 29.77 in 6.2 mi SE 10.4 mph - N/A   Mostly Cloudy
1:30 PM 51.8 °F - 48.2 °F 88% 29.77 in 6.2 mi ESE 9.2 mph - N/A   Mostly Cloudy
2:00 PM 51.8 °F - 48.2 °F 88% 29.77 in 6.2 mi ESE 10.4 mph - N/A   Mostly Cloudy
2:30 PM 53.6 °F - 48.2 °F 82% 29.74 in 6.2 mi ESE 10.4 mph - N/A   Mostly Cloudy
3:00 PM 53.6 °F - 48.2 °F 82% 29.74 in 6.2 mi ESE 10.4 mph - N/A   Mostly Cloudy
3:30 PM 53.6 °F - 48.2 °F 82% 29.74 in 6.2 mi ESE 12.7 mph - N/A   Mostly Cloudy
4:00 PM 53.6 °F - 48.2 °F 82% 29.71 in 6.2 mi ESE 13.8 mph - N/A   Mostly Cloudy
4:30 PM 51.8 °F - 48.2 °F 88% 29.71 in 6.2 mi SE 13.8 mph - N/A   Mostly Cloudy
5:00 PM 51.8 °F - 48.2 °F 88% 29.71 in 6.2 mi ESE 11.5 mph - N/A   Mostly Cloudy
5:30 PM 51.8 °F - 48.2 °F 88% 29.71 in 6.2 mi ESE 12.7 mph - N/A   Mostly Cloudy
6:00 PM 52 °F - 49 °F 84% 29.72 in 16 mi SE 15.7 mph - -   Scattered Clouds
6:00 PM 51.8 °F - 48.2 °F 88% 29.71 in 6.2 mi SE 15.0 mph - N/A   Mostly Cloudy
6:30 PM 51.8 °F - 48.2 °F 88% 29.71 in 6.2 mi SE 11.5 mph - N/A   Mostly Cloudy
7:00 PM 53.6 °F - 48.2 °F 82% 29.71 in 6.2 mi ESE 16.1 mph - N/A   Mostly Cloudy
7:30 PM 53.6 °F - 50.0 °F 88% 29.68 in 6.2 mi ESE 13.8 mph - N/A   Mostly Cloudy
8:00 PM 53.6 °F - 50.0 °F 88% 29.68 in 6.2 mi ESE 11.5 mph - N/A   Mostly Cloudy
8:30 PM 53.6 °F - 50.0 °F 88% 29.68 in 6.2 mi ESE 10.4 mph - N/A   Mostly Cloudy
9:00 PM 53.6 °F - 50.0 °F 88% 29.68 in 6.2 mi ESE 10.4 mph - N/A   Scattered Clouds
9:30 PM 53.6 °F - 50.0 °F 88% 29.65 in 6.2 mi ESE 11.5 mph - N/A   Mostly Cloudy
10:00 PM 53.6 °F - 50.0 °F 88% 29.65 in 6.2 mi SE 17.3 mph - N/A   Mostly Cloudy
10:30 PM 53.6 °F - 50.0 °F 88% 29.65 in 6.2 mi ESE 12.7 mph - N/A   Mostly Cloudy
11:00 PM 55.4 °F - 50.0 °F 82% 29.65 in 6.2 mi ESE 15.0 mph - N/A   Mostly Cloudy
11:30 PM 55.4 °F - 50.0 °F 82% 29.65 in 6.2 mi ESE 13.8 mph - N/A   Mostly Cloudy